owner,sensor,date,latitude,longitude,vertical_datum,wind_speed,wind_to_direction,wind_speed_of_gust,qcFlag 
TCOON,ioos:station:TCOON:068:1,2009-05-01T00:00:00Z,27.2970,-97.4049,0.0,12.5,109.0,15.4,'11111222,11111222,11111222' 
TCOON,ioos:station:TCOON:068:1,2009-05-01T01:00:00Z,27.2970,-97.4049,0.0,9.4,111.0,11.0,'11111222,11111222,11111222' 
TCOON,ioos:station:TCOON:068:1,2009-05-01T02:00:00Z,27.2970,-97.4049,0.0,9.3,113.0,13.0,'11111222,11111222,11111222' 
TCOON,ioos:station:TCOON:068:1,2009-05-01T03:00:00Z,27.2970,-97.4049,0.0,8.3,116.0,11.6,'11111222,11111222,11111222' 
TCOON,ioos:station:TCOON:068:1,2009-05-01T04:00:00Z,27.2970,-97.4049,0.0,10.3,123.0,12.9,'11111222,11111222,11111222' 
TCOON,ioos:station:TCOON:068:1,2009-05-01T05:00:00Z,27.2970,-97.4049,0.0,8.5,128.0,10.2,'11111222,11111222,11111222' 
TCOON,ioos:station:TCOON:068:1,2009-05-01T06:00:00Z,27.2970,-97.4049,0.0,9.7,140.0,12.4,'11111222,11111222,11111222' 
TCOON,ioos:station:TCOON:068:1,2009-05-01T07:00:00Z,27.2970,-97.4049,0.0,9.2,143.0,11.2,'11111222,11111222,11111222' 
TCOON,ioos:station:TCOON:068:1,2009-05-01T09:00:00Z,27.2970,-97.4049,0.0,8.0,130.0,10.3,'11111222,11111222,11111222' 
TCOON,ioos:station:TCOON:068:1,2009-05-01T10:00:00Z,27.2970,-97.4049,0.0,8.5,129.0,10.6,'11111222,11111222,11111222' 
TCOON,ioos:station:TCOON:068:1,2009-05-01T11:00:00Z,27.2970,-97.4049,0.0,7.9,132.0,9.6,'11111222,11111222,11111222' 
TCOON,ioos:station:TCOON:068:1,2009-05-01T12:00:00Z,27.2970,-97.4049,0.0,6.9,137.0,8.7,'11111222,11111222,11111222' 
TCOON,ioos:station:TCOON:068:1,2009-05-01T13:00:00Z,27.2970,-97.4049,0.0,9.6,134.0,12.4,'11111222,11111222,11111222' 
TCOON,ioos:station:TCOON:068:1,2009-05-01T14:00:00Z,27.2970,-97.4049,0.0,9.2,133.0,11.7,'11111222,11111222,11111222' 
TCOON,ioos:station:TCOON:068:1,2009-05-01T15:00:00Z,27.2970,-97.4049,0.0,9.8,135.0,11.9,'11111222,11111222,11111222' 
TCOON,ioos:station:TCOON:068:1,2009-05-01T16:00:00Z,27.2970,-97.4049,0.0,7.6,140.0,9.8,'11111222,11111222,11111222' 
TCOON,ioos:station:TCOON:068:1,2009-05-01T17:00:00Z,27.2970,-97.4049,0.0,9.6,134.0,13.3,'11111222,11111222,11111222' 
TCOON,ioos:station:TCOON:068:1,2009-05-01T18:00:00Z,27.2970,-97.4049,0.0,10.2,125.0,13.4,'11111222,11111222,11111222' 
TCOON,ioos:station:TCOON:068:1,2009-05-01T19:00:00Z,27.2970,-97.4049,0.0,9.6,125.0,11.9,'11111222,11111222,11111222' 
TCOON,ioos:station:TCOON:068:1,2009-05-01T20:00:00Z,27.2970,-97.4049,0.0,10.3,125.0,15.4,'11111222,11111222,11111222' 
TCOON,ioos:station:TCOON:068:1,2009-05-01T21:00:00Z,27.2970,-97.4049,0.0,10.4,124.0,12.8,'11111222,11111222,11111222' 
TCOON,ioos:station:TCOON:068:1,2009-05-01T22:00:00Z,27.2970,-97.4049,0.0,10.4,117.0,13.9,'11111222,11111222,11111222' 
TCOON,ioos:station:TCOON:068:1,2009-05-01T23:00:00Z,27.2970,-97.4049,0.0,8.5,114.0,10.5,'11111222,11111222,11111222' 
TCOON,ioos:station:TCOON:068:1,2009-05-02T00:00:00Z,27.2970,-97.4049,0.0,7.8,113.0,10.2,'11111222,11111222,11111222' 
TCOON,ioos:station:TCOON:068:1,2009-05-02T01:00:00Z,27.2970,-97.4049,0.0,7.0,116.0,9.0,'11111222,11111222,11111222' 
TCOON,ioos:station:TCOON:068:1,2009-05-02T02:00:00Z,27.2970,-97.4049,0.0,7.8,120.0,9.7,'11111222,11111222,11111222' 
TCOON,ioos:station:TCOON:068:1,2009-05-02T03:00:00Z,27.2970,-97.4049,0.0,8.9,122.0,10.5,'11111222,11111222,11111222' 
TCOON,ioos:station:TCOON:068:1,2009-05-02T04:00:00Z,27.2970,-97.4049,0.0,9.2,125.0,11.1,'11111222,11111222,11111222' 
TCOON,ioos:station:TCOON:068:1,2009-05-02T05:00:00Z,27.2970,-97.4049,0.0,8.8,137.0,10.8,'11111222,11111222,11111222' 
TCOON,ioos:station:TCOON:068:1,2009-05-02T06:00:00Z,27.2970,-97.4049,0.0,7.7,129.0,10.2,'11111222,11111222,11111222' 
TCOON,ioos:station:TCOON:068:1,2009-05-02T07:00:00Z,27.2970,-97.4049,0.0,9.4,142.0,11.7,'11111222,11111222,11111222' 
TCOON,ioos:station:TCOON:068:1,2009-05-02T08:00:00Z,27.2970,-97.4049,0.0,9.3,148.0,20.0,'11111222,11111222,11111222' 
TCOON,ioos:station:TCOON:068:1,2009-05-02T09:00:00Z,27.2970,-97.4049,0.0,8.4,150.0,10.8,'11111222,11111222,11111222' 
TCOON,ioos:station:TCOON:068:1,2009-05-02T10:00:00Z,27.2970,-97.4049,0.0,9.2,139.0,11.0,'11111222,11111222,11111222' 
TCOON,ioos:station:TCOON:068:1,2009-05-02T11:00:00Z,27.2970,-97.4049,0.0,8.6,135.0,10.5,'11111222,11111222,11111222' 
TCOON,ioos:station:TCOON:068:1,2009-05-02T12:00:00Z,27.2970,-97.4049,0.0,9.4,136.0,66.7,'11111222,11111222,11111222' 
TCOON,ioos:station:TCOON:068:1,2009-05-02T13:00:00Z,27.2970,-97.4049,0.0,8.0,134.0,10.1,'11111222,11111222,11111222' 
TCOON,ioos:station:TCOON:068:1,2009-05-02T14:00:00Z,27.2970,-97.4049,0.0,9.1,135.0,11.6,'11111222,11111222,11111222' 
TCOON,ioos:station:TCOON:068:1,2009-05-02T15:00:00Z,27.2970,-97.4049,0.0,10.1,129.0,13.4,'11111222,11111222,11111222' 
TCOON,ioos:station:TCOON:068:1,2009-05-02T16:00:00Z,27.2970,-97.4049,0.0,11.1,133.0,15.1,'11111222,11111222,11111222' 
TCOON,ioos:station:TCOON:068:1,2009-05-02T18:00:00Z,27.2970,-97.4049,0.0,11.4,138.0,50.1,'11111222,11111222,11111222' 
TCOON,ioos:station:TCOON:068:1,2009-05-02T19:00:00Z,27.2970,-97.4049,0.0,11.3,131.0,14.8,'11111222,11111222,11111222' 
TCOON,ioos:station:TCOON:068:1,2009-05-02T20:00:00Z,27.2970,-97.4049,0.0,12.7,129.0,17.2,'11111222,11111222,11111222' 
TCOON,ioos:station:TCOON:068:1,2009-05-02T21:00:00Z,27.2970,-97.4049,0.0,11.0,131.0,15.5,'11111222,11111222,11111222' 
TCOON,ioos:station:TCOON:068:1,2009-05-02T22:00:00Z,27.2970,-97.4049,0.0,11.2,127.0,14.5,'11111222,11111222,11111222' 
TCOON,ioos:station:TCOON:068:1,2009-05-02T23:00:00Z,27.2970,-97.4049,0.0,11.3,122.0,22.2,'11111222,11111222,11111222' 
TCOON,ioos:station:TCOON:068:1,2009-05-03T00:00:00Z,27.2970,-97.4049,0.0,9.2,121.0,11.7,'11111222,11111222,11111222' 
TCOON,ioos:station:TCOON:068:1,2009-05-03T01:00:00Z,27.2970,-97.4049,0.0,9.9,122.0,12.6,'11111222,11111222,11111222' 
TCOON,ioos:station:TCOON:068:1,2009-05-03T02:00:00Z,27.2970,-97.4049,0.0,8.1,121.0,10.9,'11111222,11111222,11111222' 
TCOON,ioos:station:TCOON:068:1,2009-05-03T03:00:00Z,27.2970,-97.4049,0.0,9.9,123.0,12.4,'11111222,11111222,11111222' 
TCOON,ioos:station:TCOON:068:1,2009-05-03T04:00:00Z,27.2970,-97.4049,0.0,7.4,135.0,9.6,'11111222,11111222,11111222' 
TCOON,ioos:station:TCOON:068:1,2009-05-03T05:00:00Z,27.2970,-97.4049,0.0,8.8,140.0,11.5,'11111222,11111222,11111222' 
TCOON,ioos:station:TCOON:068:1,2009-05-03T06:00:00Z,27.2970,-97.4049,0.0,8.9,143.0,11.7,'11111222,11111222,11111222' 
TCOON,ioos:station:TCOON:068:1,2009-05-03T07:00:00Z,27.2970,-97.4049,0.0,8.6,143.0,10.7,'11111222,11111222,11111222' 
TCOON,ioos:station:TCOON:068:1,2009-05-03T08:00:00Z,27.2970,-97.4049,0.0,7.0,148.0,9.0,'11111222,11111222,11111222' 
TCOON,ioos:station:TCOON:068:1,2009-05-03T09:00:00Z,27.2970,-97.4049,0.0,8.7,145.0,11.8,'11111222,11111222,11111222' 
TCOON,ioos:station:TCOON:068:1,2009-05-03T10:00:00Z,27.2970,-97.4049,0.0,9.7,147.0,12.2,'11111222,11111222,11111222' 
TCOON,ioos:station:TCOON:068:1,2009-05-03T12:00:00Z,27.2970,-97.4049,0.0,9.7,156.0,12.4,'11111222,11111222,11111222' 
TCOON,ioos:station:TCOON:068:1,2009-05-03T13:00:00Z,27.2970,-97.4049,0.0,10.4,160.0,12.7,'11111222,11111222,11111222' 
TCOON,ioos:station:TCOON:068:1,2009-05-03T14:00:00Z,27.2970,-97.4049,0.0,9.2,162.0,12.0,'11111222,11111222,11111222' 
TCOON,ioos:station:TCOON:068:1,2009-05-03T15:00:00Z,27.2970,-97.4049,0.0,6.7,152.0,7.9,'11111222,11111222,11111222' 
TCOON,ioos:station:TCOON:068:1,2009-05-03T16:00:00Z,27.2970,-97.4049,0.0,6.9,154.0,9.2,'11111222,11111222,11111222' 
TCOON,ioos:station:TCOON:068:1,2009-05-03T17:00:00Z,27.2970,-97.4049,0.0,7.6,133.0,9.2,'11111222,11111222,11111222' 
TCOON,ioos:station:TCOON:068:1,2009-05-03T18:00:00Z,27.2970,-97.4049,0.0,8.1,130.0,10.5,'11111222,11111222,11111222' 
TCOON,ioos:station:TCOON:068:1,2009-05-03T19:00:00Z,27.2970,-97.4049,0.0,9.1,128.0,11.9,'11111222,11111222,11111222' 
TCOON,ioos:station:TCOON:068:1,2009-05-03T20:00:00Z,27.2970,-97.4049,0.0,10.0,133.0,12.8,'11111222,11111222,11111222' 
TCOON,ioos:station:TCOON:068:1,2009-05-03T21:00:00Z,27.2970,-97.4049,0.0,9.4,132.0,11.5,'11111222,11111222,11111222' 
TCOON,ioos:station:TCOON:068:1,2009-05-03T22:00:00Z,27.2970,-97.4049,0.0,10.5,130.0,13.4,'11111222,11111222,11111222' 
TCOON,ioos:station:TCOON:068:1,2009-05-03T23:00:00Z,27.2970,-97.4049,0.0,10.3,129.0,13.7,'11111222,11111222,11111222' 
TCOON,ioos:station:TCOON:068:1,2009-05-04T00:00:00Z,27.2970,-97.4049,0.0,11.0,128.0,13.3,'11111222,11111222,11111222' 
TCOON,ioos:station:TCOON:068:1,2009-05-04T01:00:00Z,27.2970,-97.4049,0.0,9.1,129.0,10.9,'11111222,11111222,11111222' 
TCOON,ioos:station:TCOON:068:1,2009-05-04T02:00:00Z,27.2970,-97.4049,0.0,8.4,122.0,99.0,'11111222,11111222,11144222' 
TCOON,ioos:station:TCOON:068:1,2009-05-04T03:00:00Z,27.2970,-97.4049,0.0,6.7,122.0,8.6,'11111222,11111222,11111222' 
TCOON,ioos:station:TCOON:068:1,2009-05-04T04:00:00Z,27.2970,-97.4049,0.0,4.8,118.0,6.0,'11111222,11111222,11111222' 
TCOON,ioos:station:TCOON:068:1,2009-05-04T05:00:00Z,27.2970,-97.4049,0.0,3.4,112.0,4.4,'11111222,11111222,11111222' 
TCOON,ioos:station:TCOON:068:1,2009-05-04T06:00:00Z,27.2970,-97.4049,0.0,3.6,63.0,4.9,'11111222,11111222,11111222' 
TCOON,ioos:station:TCOON:068:1,2009-05-04T07:00:00Z,27.2970,-97.4049,0.0,3.9,72.0,4.2,'11111222,11111222,11111222' 
TCOON,ioos:station:TCOON:068:1,2009-05-04T08:00:00Z,27.2970,-97.4049,0.0,4.2,68.0,4.8,'11111222,11111222,11111222' 
TCOON,ioos:station:TCOON:068:1,2009-05-04T09:00:00Z,27.2970,-97.4049,0.0,3.9,76.0,4.8,'11111222,11111222,11111222' 
TCOON,ioos:station:TCOON:068:1,2009-05-04T10:00:00Z,27.2970,-97.4049,0.0,4.7,52.0,5.2,'11111222,11111222,11111222' 
TCOON,ioos:station:TCOON:068:1,2009-05-04T11:00:00Z,27.2970,-97.4049,0.0,6.2,40.0,6.7,'11111222,11111222,11111222' 
TCOON,ioos:station:TCOON:068:1,2009-05-04T12:00:00Z,27.2970,-97.4049,0.0,6.2,55.0,7.0,'11111222,11111222,11111222' 
TCOON,ioos:station:TCOON:068:1,2009-05-04T13:00:00Z,27.2970,-97.4049,0.0,5.5,69.0,6.8,'11111222,11111222,11111222' 
TCOON,ioos:station:TCOON:068:1,2009-05-04T14:00:00Z,27.2970,-97.4049,0.0,9.2,36.0,10.6,'11111222,11111222,11111222' 
TCOON,ioos:station:TCOON:068:1,2009-05-04T15:00:00Z,27.2970,-97.4049,0.0,7.8,38.0,9.0,'11111222,11111222,11111222' 
TCOON,ioos:station:TCOON:068:1,2009-05-04T16:00:00Z,27.2970,-97.4049,0.0,7.2,40.0,8.1,'11111222,11111222,11111222' 
TCOON,ioos:station:TCOON:068:1,2009-05-04T17:00:00Z,27.2970,-97.4049,0.0,6.3,46.0,7.5,'11111222,11111222,11111222' 
TCOON,ioos:station:TCOON:068:1,2009-05-04T20:00:00Z,27.2970,-97.4049,0.0,5.3,57.0,6.4,'11111222,11111222,11111222' 
TCOON,ioos:station:TCOON:068:1,2009-05-04T21:00:00Z,27.2970,-97.4049,0.0,5.5,64.0,6.5,'11111222,11111222,11111222' 
TCOON,ioos:station:TCOON:068:1,2009-05-04T22:00:00Z,27.2970,-97.4049,0.0,7.5,76.0,8.8,'11111222,11111222,11111222' 
TCOON,ioos:station:TCOON:068:1,2009-05-04T23:00:00Z,27.2970,-97.4049,0.0,5.5,97.0,7.0,'11111222,11111222,11111222' 
TCOON,ioos:station:TCOON:068:1,2009-05-05T00:00:00Z,27.2970,-97.4049,0.0,6.9,105.0,8.3,'11111222,11111222,11111222' 
TCOON,ioos:station:TCOON:068:1,2009-05-05T01:00:00Z,27.2970,-97.4049,0.0,6.3,100.0,7.7,'11111222,11111222,11111222' 
TCOON,ioos:station:TCOON:068:1,2009-05-05T02:00:00Z,27.2970,-97.4049,0.0,7.4,92.0,9.0,'11111222,11111222,11111222' 
TCOON,ioos:station:TCOON:068:1,2009-05-05T03:00:00Z,27.2970,-97.4049,0.0,7.2,98.0,8.1,'11111222,11111222,11111222' 
TCOON,ioos:station:TCOON:068:1,2009-05-05T04:00:00Z,27.2970,-97.4049,0.0,6.4,106.0,7.8,'11111222,11111222,11111222' 
TCOON,ioos:station:TCOON:068:1,2009-05-05T05:00:00Z,27.2970,-97.4049,0.0,7.0,122.0,8.8,'11111222,11111222,11111222' 
TCOON,ioos:station:TCOON:068:1,2009-05-05T06:00:00Z,27.2970,-97.4049,0.0,6.4,108.0,8.5,'11111222,11111222,11111222' 
TCOON,ioos:station:TCOON:068:1,2009-05-05T07:00:00Z,27.2970,-97.4049,0.0,5.8,122.0,8.7,'11111222,11111222,11111222' 
TCOON,ioos:station:TCOON:068:1,2009-05-05T08:00:00Z,27.2970,-97.4049,0.0,6.0,117.0,8.3,'11111222,11111222,11111222' 
TCOON,ioos:station:TCOON:068:1,2009-05-05T09:00:00Z,27.2970,-97.4049,0.0,6.5,120.0,7.9,'11111222,11111222,11111222' 
TCOON,ioos:station:TCOON:068:1,2009-05-05T10:00:00Z,27.2970,-97.4049,0.0,6.0,119.0,7.7,'11111222,11111222,11111222' 
TCOON,ioos:station:TCOON:068:1,2009-05-05T11:00:00Z,27.2970,-97.4049,0.0,5.3,125.0,6.4,'11111222,11111222,11111222' 
TCOON,ioos:station:TCOON:068:1,2009-05-05T12:00:00Z,27.2970,-97.4049,0.0,5.5,116.0,6.6,'11111222,11111222,11111222' 
TCOON,ioos:station:TCOON:068:1,2009-05-05T13:00:00Z,27.2970,-97.4049,0.0,6.4,120.0,7.8,'11111222,11111222,11111222' 
TCOON,ioos:station:TCOON:068:1,2009-05-05T14:00:00Z,27.2970,-97.4049,0.0,6.0,139.0,7.6,'11111222,11111222,11111222' 
TCOON,ioos:station:TCOON:068:1,2009-05-05T15:00:00Z,27.2970,-97.4049,0.0,8.3,141.0,10.1,'11111222,11111222,11111222' 
TCOON,ioos:station:TCOON:068:1,2009-05-05T16:00:00Z,27.2970,-97.4049,0.0,9.0,132.0,11.2,'11111222,11111222,11111222' 
TCOON,ioos:station:TCOON:068:1,2009-05-05T17:00:00Z,27.2970,-97.4049,0.0,8.6,134.0,11.1,'11111222,11111222,11111222' 
TCOON,ioos:station:TCOON:068:1,2009-05-05T18:00:00Z,27.2970,-97.4049,0.0,9.8,129.0,12.4,'11111222,11111222,11111222' 
TCOON,ioos:station:TCOON:068:1,2009-05-05T19:00:00Z,27.2970,-97.4049,0.0,9.9,131.0,13.9,'11111222,11111222,11111222' 
TCOON,ioos:station:TCOON:068:1,2009-05-05T20:00:00Z,27.2970,-97.4049,0.0,9.8,123.0,13.1,'11111222,11111222,11111222' 
TCOON,ioos:station:TCOON:068:1,2009-05-05T22:00:00Z,27.2970,-97.4049,0.0,8.6,119.0,12.1,'11111222,11111222,11111222' 
TCOON,ioos:station:TCOON:068:1,2009-05-05T23:00:00Z,27.2970,-97.4049,0.0,10.4,119.0,13.0,'11111222,11111222,11111222' 
TCOON,ioos:station:TCOON:068:1,2009-05-06T00:00:00Z,27.2970,-97.4049,0.0,9.1,122.0,11.7,'11111222,11111222,11111222' 
TCOON,ioos:station:TCOON:068:1,2009-05-06T01:00:00Z,27.2970,-97.4049,0.0,8.4,125.0,10.2,'11111222,11111222,11111222' 
TCOON,ioos:station:TCOON:068:1,2009-05-06T02:00:00Z,27.2970,-97.4049,0.0,9.2,132.0,11.7,'11111222,11111222,11111222' 
TCOON,ioos:station:TCOON:068:1,2009-05-06T03:00:00Z,27.2970,-97.4049,0.0,9.1,138.0,11.7,'11111222,11111222,11111222' 
TCOON,ioos:station:TCOON:068:1,2009-05-06T04:00:00Z,27.2970,-97.4049,0.0,8.8,146.0,11.8,'11111222,11111222,11111222' 
TCOON,ioos:station:TCOON:068:1,2009-05-06T05:00:00Z,27.2970,-97.4049,0.0,9.4,143.0,11.6,'11111222,11111222,11111222' 
TCOON,ioos:station:TCOON:068:1,2009-05-06T06:00:00Z,27.2970,-97.4049,0.0,10.0,146.0,13.1,'11111222,11111222,11111222' 
TCOON,ioos:station:TCOON:068:1,2009-05-06T07:00:00Z,27.2970,-97.4049,0.0,9.6,148.0,11.7,'11111222,11111222,11111222' 
TCOON,ioos:station:TCOON:068:1,2009-05-06T08:00:00Z,27.2970,-97.4049,0.0,8.8,144.0,11.2,'11111222,11111222,11111222' 
TCOON,ioos:station:TCOON:068:1,2009-05-06T09:00:00Z,27.2970,-97.4049,0.0,7.9,149.0,9.7,'11111222,11111222,11111222' 
TCOON,ioos:station:TCOON:068:1,2009-05-06T10:00:00Z,27.2970,-97.4049,0.0,9.7,149.0,11.6,'11111222,11111222,11111222' 
TCOON,ioos:station:TCOON:068:1,2009-05-06T11:00:00Z,27.2970,-97.4049,0.0,8.6,154.0,10.5,'11111222,11111222,11111222' 
TCOON,ioos:station:TCOON:068:1,2009-05-06T12:00:00Z,27.2970,-97.4049,0.0,8.1,146.0,10.3,'11111222,11111222,11111222' 
TCOON,ioos:station:TCOON:068:1,2009-05-06T13:00:00Z,27.2970,-97.4049,0.0,7.9,147.0,10.6,'11111222,11111222,11111222' 
TCOON,ioos:station:TCOON:068:1,2009-05-06T14:00:00Z,27.2970,-97.4049,0.0,8.7,157.0,10.6,'11111222,11111222,11111222' 
TCOON,ioos:station:TCOON:068:1,2009-05-06T15:00:00Z,27.2970,-97.4049,0.0,9.0,152.0,10.8,'11111222,11111222,11111222' 
TCOON,ioos:station:TCOON:068:1,2009-05-06T16:00:00Z,27.2970,-97.4049,0.0,10.1,141.0,12.5,'11111222,11111222,11111222' 
TCOON,ioos:station:TCOON:068:1,2009-05-06T17:00:00Z,27.2970,-97.4049,0.0,11.1,137.0,13.7,'11111222,11111222,11111222' 
TCOON,ioos:station:TCOON:068:1,2009-05-06T19:00:00Z,27.2970,-97.4049,0.0,11.1,127.0,13.8,'11111222,11111222,11111222' 
TCOON,ioos:station:TCOON:068:1,2009-05-06T20:00:00Z,27.2970,-97.4049,0.0,10.9,126.0,14.3,'11111222,11111222,11111222' 
TCOON,ioos:station:TCOON:068:1,2009-05-06T21:00:00Z,27.2970,-97.4049,0.0,11.5,127.0,14.9,'11111222,11111222,11111222' 
TCOON,ioos:station:TCOON:068:1,2009-05-06T22:00:00Z,27.2970,-97.4049,0.0,11.4,124.0,13.7,'11111222,11111222,11111222' 
TCOON,ioos:station:TCOON:068:1,2009-05-06T23:00:00Z,27.2970,-97.4049,0.0,11.0,125.0,13.0,'11111222,11111222,11111222' 
TCOON,ioos:station:TCOON:068:1,2009-05-07T00:00:00Z,27.2970,-97.4049,0.0,10.6,130.0,12.8,'11111222,11111222,11111222' 
TCOON,ioos:station:TCOON:068:1,2009-05-07T01:00:00Z,27.2970,-97.4049,0.0,9.9,126.0,11.9,'11111222,11111222,11111222' 
TCOON,ioos:station:TCOON:068:1,2009-05-07T02:00:00Z,27.2970,-97.4049,0.0,6.9,117.0,9.2,'11111222,11111222,11111222' 
TCOON,ioos:station:TCOON:068:1,2009-05-07T03:00:00Z,27.2970,-97.4049,0.0,7.1,132.0,8.7,'11111222,11111222,11111222' 
TCOON,ioos:station:TCOON:068:1,2009-05-07T04:00:00Z,27.2970,-97.4049,0.0,6.4,131.0,8.1,'11111222,11111222,11111222' 
TCOON,ioos:station:TCOON:068:1,2009-05-07T05:00:00Z,27.2970,-97.4049,0.0,5.4,133.0,7.0,'11111222,11111222,11111222' 
TCOON,ioos:station:TCOON:068:1,2009-05-07T06:00:00Z,27.2970,-97.4049,0.0,6.4,129.0,8.5,'11111222,11111222,11111222' 
TCOON,ioos:station:TCOON:068:1,2009-05-07T07:00:00Z,27.2970,-97.4049,0.0,6.4,129.0,8.1,'11111222,11111222,11111222' 
TCOON,ioos:station:TCOON:068:1,2009-05-07T08:00:00Z,27.2970,-97.4049,0.0,5.4,130.0,6.8,'11111222,11111222,11111222' 
TCOON,ioos:station:TCOON:068:1,2009-05-07T09:00:00Z,27.2970,-97.4049,0.0,6.5,130.0,8.1,'11111222,11111222,11111222' 
TCOON,ioos:station:TCOON:068:1,2009-05-07T10:00:00Z,27.2970,-97.4049,0.0,6.3,126.0,8.0,'11111222,11111222,11111222' 
TCOON,ioos:station:TCOON:068:1,2009-05-07T11:00:00Z,27.2970,-97.4049,0.0,5.9,129.0,7.0,'11111222,11111222,11111222' 
TCOON,ioos:station:TCOON:068:1,2009-05-07T12:00:00Z,27.2970,-97.4049,0.0,6.8,126.0,8.0,'11111222,11111222,11111222' 
TCOON,ioos:station:TCOON:068:1,2009-05-07T13:00:00Z,27.2970,-97.4049,0.0,6.0,127.0,7.9,'11111222,11111222,11111222' 
TCOON,ioos:station:TCOON:068:1,2009-05-07T14:00:00Z,27.2970,-97.4049,0.0,8.0,129.0,9.9,'11111222,11111222,11111222' 
TCOON,ioos:station:TCOON:068:1,2009-05-07T15:00:00Z,27.2970,-97.4049,0.0,6.9,131.0,8.6,'11111222,11111222,11111222' 
TCOON,ioos:station:TCOON:068:1,2009-05-07T16:00:00Z,27.2970,-97.4049,0.0,7.5,135.0,9.2,'11111222,11111222,11111222' 
TCOON,ioos:station:TCOON:068:1,2009-05-07T17:00:00Z,27.2970,-97.4049,0.0,8.6,135.0,11.2,'11111222,11111222,11111222' 
TCOON,ioos:station:TCOON:068:1,2009-05-07T20:00:00Z,27.2970,-97.4049,0.0,9.7,122.0,12.4,'11111222,11111222,11111222' 
TCOON,ioos:station:TCOON:068:1,2009-05-07T21:00:00Z,27.2970,-97.4049,0.0,10.6,120.0,13.4,'11111222,11111222,11111222' 
TCOON,ioos:station:TCOON:068:1,2009-05-07T22:00:00Z,27.2970,-97.4049,0.0,10.3,113.0,13.4,'11111222,11111222,11111222' 
TCOON,ioos:station:TCOON:068:1,2009-05-07T23:00:00Z,27.2970,-97.4049,0.0,10.0,116.0,13.6,'11111222,11111222,11111222' 
TCOON,ioos:station:TCOON:068:1,2009-05-08T00:00:00Z,27.2970,-97.4049,0.0,9.3,116.0,11.8,'11111222,11111222,11111222' 
TCOON,ioos:station:TCOON:068:1,2009-05-08T01:00:00Z,27.2970,-97.4049,0.0,8.3,122.0,10.1,'11111222,11111222,11111222' 
TCOON,ioos:station:TCOON:068:1,2009-05-08T02:00:00Z,27.2970,-97.4049,0.0,6.8,120.0,9.1,'11111222,11111222,11111222' 
TCOON,ioos:station:TCOON:068:1,2009-05-08T03:00:00Z,27.2970,-97.4049,0.0,9.6,122.0,25.0,'11111222,11111222,11111222' 
TCOON,ioos:station:TCOON:068:1,2009-05-08T04:00:00Z,27.2970,-97.4049,0.0,8.2,125.0,10.0,'11111222,11111222,11111222' 
TCOON,ioos:station:TCOON:068:1,2009-05-08T05:00:00Z,27.2970,-97.4049,0.0,8.2,127.0,9.7,'11111222,11111222,11111222' 
TCOON,ioos:station:TCOON:068:1,2009-05-08T07:00:00Z,27.2970,-97.4049,0.0,8.2,142.0,10.0,'11111222,11111222,11111222' 
TCOON,ioos:station:TCOON:068:1,2009-05-08T09:00:00Z,27.2970,-97.4049,0.0,8.8,148.0,11.1,'11111222,11111222,11111222' 
TCOON,ioos:station:TCOON:068:1,2009-05-08T13:00:00Z,27.2970,-97.4049,0.0,10.5,140.0,13.4,'11111222,11111222,11111222' 
TCOON,ioos:station:TCOON:068:1,2009-05-08T14:00:00Z,27.2970,-97.4049,0.0,10.4,145.0,13.5,'11111222,11111222,11111222' 
TCOON,ioos:station:TCOON:068:1,2009-05-08T15:00:00Z,27.2970,-97.4049,0.0,11.2,149.0,99.0,'11111222,11111222,11144222' 
TCOON,ioos:station:TCOON:068:1,2009-05-08T16:00:00Z,27.2970,-97.4049,0.0,9.8,146.0,12.6,'11111222,11111222,11111222' 
TCOON,ioos:station:TCOON:068:1,2009-05-08T17:00:00Z,27.2970,-97.4049,0.0,11.1,146.0,13.5,'11111222,11111222,11111222' 
TCOON,ioos:station:TCOON:068:1,2009-05-08T18:00:00Z,27.2970,-97.4049,0.0,12.4,137.0,15.9,'11111222,11111222,11111222' 
TCOON,ioos:station:TCOON:068:1,2009-05-08T19:00:00Z,27.2970,-97.4049,0.0,12.7,135.0,16.6,'11111222,11111222,11111222' 
TCOON,ioos:station:TCOON:068:1,2009-05-08T20:00:00Z,27.2970,-97.4049,0.0,12.8,133.0,16.3,'11111222,11111222,11111222' 
TCOON,ioos:station:TCOON:068:1,2009-05-08T21:00:00Z,27.2970,-97.4049,0.0,13.7,130.0,16.1,'11111222,11111222,11111222' 
TCOON,ioos:station:TCOON:068:1,2009-05-08T22:00:00Z,27.2970,-97.4049,0.0,11.4,134.0,14.9,'11111222,11111222,11111222' 
TCOON,ioos:station:TCOON:068:1,2009-05-08T23:00:00Z,27.2970,-97.4049,0.0,9.8,128.0,13.1,'11111222,11111222,11111222' 
TCOON,ioos:station:TCOON:068:1,2009-05-09T00:00:00Z,27.2970,-97.4049,0.0,8.2,132.0,10.4,'11111222,11111222,11111222' 
TCOON,ioos:station:TCOON:068:1,2009-05-09T01:00:00Z,27.2970,-97.4049,0.0,10.1,130.0,12.5,'11111222,11111222,11111222' 
TCOON,ioos:station:TCOON:068:1,2009-05-09T02:00:00Z,27.2970,-97.4049,0.0,8.0,137.0,9.7,'11111222,11111222,11111222' 
TCOON,ioos:station:TCOON:068:1,2009-05-09T03:00:00Z,27.2970,-97.4049,0.0,8.9,137.0,11.8,'11111222,11111222,11111222' 
TCOON,ioos:station:TCOON:068:1,2009-05-09T04:00:00Z,27.2970,-97.4049,0.0,8.6,140.0,10.2,'11111222,11111222,11111222' 
TCOON,ioos:station:TCOON:068:1,2009-05-09T05:00:00Z,27.2970,-97.4049,0.0,8.8,139.0,11.0,'11111222,11111222,11111222' 
TCOON,ioos:station:TCOON:068:1,2009-05-09T06:00:00Z,27.2970,-97.4049,0.0,9.9,143.0,11.7,'11111222,11111222,11111222' 
TCOON,ioos:station:TCOON:068:1,2009-05-09T07:00:00Z,27.2970,-97.4049,0.0,9.4,149.0,33.4,'11111222,11111222,11111222' 
TCOON,ioos:station:TCOON:068:1,2009-05-09T08:00:00Z,27.2970,-97.4049,0.0,8.5,158.0,10.1,'11111222,11111222,11111222' 
TCOON,ioos:station:TCOON:068:1,2009-05-09T10:00:00Z,27.2970,-97.4049,0.0,7.1,155.0,8.3,'11111222,11111222,11111222' 
TCOON,ioos:station:TCOON:068:1,2009-05-09T11:00:00Z,27.2970,-97.4049,0.0,8.7,143.0,11.2,'11111222,11111222,11111222' 
TCOON,ioos:station:TCOON:068:1,2009-05-09T12:00:00Z,27.2970,-97.4049,0.0,8.9,149.0,11.1,'11111222,11111222,11111222' 
TCOON,ioos:station:TCOON:068:1,2009-05-09T13:00:00Z,27.2970,-97.4049,0.0,10.0,149.0,12.1,'11111222,11111222,11111222' 
TCOON,ioos:station:TCOON:068:1,2009-05-09T14:00:00Z,27.2970,-97.4049,0.0,10.0,139.0,12.8,'11111222,11111222,11111222' 
TCOON,ioos:station:TCOON:068:1,2009-05-09T15:00:00Z,27.2970,-97.4049,0.0,9.5,145.0,12.4,'11111222,11111222,11111222' 
TCOON,ioos:station:TCOON:068:1,2009-05-09T17:00:00Z,27.2970,-97.4049,0.0,8.2,127.0,10.1,'11111222,11111222,11111222' 
TCOON,ioos:station:TCOON:068:1,2009-05-09T18:00:00Z,27.2970,-97.4049,0.0,8.1,119.0,10.2,'11111222,11111222,11111222' 
TCOON,ioos:station:TCOON:068:1,2009-05-09T19:00:00Z,27.2970,-97.4049,0.0,8.2,117.0,11.4,'11111222,11111222,11111222' 
TCOON,ioos:station:TCOON:068:1,2009-05-09T20:00:00Z,27.2970,-97.4049,0.0,10.1,109.0,12.3,'11111222,11111222,11111222' 
TCOON,ioos:station:TCOON:068:1,2009-05-09T21:00:00Z,27.2970,-97.4049,0.0,10.3,109.0,12.9,'11111222,11111222,11111222' 
TCOON,ioos:station:TCOON:068:1,2009-05-09T22:00:00Z,27.2970,-97.4049,0.0,9.7,117.0,11.7,'11111222,11111222,11111222' 
TCOON,ioos:station:TCOON:068:1,2009-05-09T23:00:00Z,27.2970,-97.4049,0.0,9.6,108.0,11.2,'11111222,11111222,11111222' 
TCOON,ioos:station:TCOON:068:1,2009-05-10T00:00:00Z,27.2970,-97.4049,0.0,8.8,107.0,12.0,'11111222,11111222,11111222' 
TCOON,ioos:station:TCOON:068:1,2009-05-10T01:00:00Z,27.2970,-97.4049,0.0,6.7,111.0,9.4,'11111222,11111222,11111222' 